Location: Unnamed
(51.8936°N, 11.0665°E)
Time: 02:32:19
(UTC+02:00)

KAITUO 1B - Pass Details

Date: 02 October 2021
Orbit: 488 x 510 km, 97.4° (Epoch: 25 October)

Event Time Altitude Azimuth Distance (km) Brightness Sun altitude
Rises 19:49:00 0° 204° (SSW) 2,588 ? -9.8°
Reaches altitude 10° 19:51:35 10° 224° (SW) 1,705 ? -10.2°
Maximum altitude 19:54:10 18° 269° (W) 1,280 ? -10.6°
Drops below altitude 10° 19:56:45 10° 314° (NW) 1,707 ? -11.0°
Sets 19:59:22 0° 333° (NNW) 2,592 ? -11.4°
